Wind_Speed
25 25 24 24 24 24 23 22 21 20 20 19 18 18 17 16 16 16 16 15 15 14 14 14 14 14 13 13 13 13 13 12 12 11 11 11 10 9 9 8 8 7 7 6 6 6 6 6 6
26 26 26 26 26 25 23 23 22 21 21 21 21 20 19 18 18 17 17 17 17 16 15 15 15 15 15 15 15 15 15 15 14 14 13 13 12 12 11 10 10 9 8 8 7 7 7 7 7
28 28 28 28 27 26 25 24 24 23 22 22 22 22 21 21 20 19 19 19 18 18 18 17 17 17 17 17 17 17 17 17 16 16 16 15 14 13 13 13 12 11 10 10 9 9 9 9 9
30 30 31 31 29 27 26 26 25 25 24 24 24 24 23 23 22 21 21 20 20 20 20 19 19 18 18 18 19 19 19 19 18 18 18 17 16 16 15 15 14 13 12 12 11 11 10 11 11
32 32 33 32 30 28 28 28 27 27 26 26 26 25 25 25 24 24 23 22 22 22 22 21 21 20 20 20 20 20 20 20 20 20 20 19 18 18 17 17 16 15 15 14 14 13 12 13 12
33 33 34 33 30 29 30 30 29 29 28 28 27 27 26 26 26 26 25 24 24 23 23 23 23 22 21 21 21 22 22 22 22 22 21 21 21 20 20 19 19 18 17 17 16 16 15 15 14
34 34 34 33 32 31 31 31 31 31 30 29 29 29 28 28 28 27 27 26 26 26 26 25 25 24 23 23 24 24 24 24 24 24 24 23 23 22 22 22 21 20 20 19 19 18 18 17 16
35 36 35 34 33 32 32 33 33 33 32 31 31 31 30 30 30 29 29 29 28 28 28 28 27 27 26 26 26 26 26 26 26 26 26 25 24 24 24 23 23 23 22 21 21 21 20 19 19
37 37 36 34 34 34 34 34 35 35 34 33 33 32 32 32 32 31 31 31 31 31 30 30 29 29 29 29 28 28 28 28 27 27 27 27 26 26 26 25 25 24 24 24 23 23 22 22 21
36 37 36 35 35 35 35 36 36 36 35 34 34 34 34 33 33 33 32 32 33 33 32 32 32 32 32 32 31 31 31 30 29 29 29 29 29 29 28 27 27 27 26 26 26 25 25 24 24
36 36 35 36 36 37 37 37 37 37 36 36 36 35 35 35 34 34 33 34 34 34 34 34 34 34 34 34 33 33 32 32 31 31 31 31 31 31 30 30 29 29 29 28 28 27 27 26 26
36 36 36 36 36 37 37 37 37 37 37 37 37 37 36 36 36 35 35 35 35 35 35 36 36 36 35 35 35 34 34 33 33 33 33 32 32 32 32 32 31 30 30 30 29 29 28 28 27
37 36 37 37 37 37 37 37 38 38 37 37 37 37 37 37 38 37 37 37 37 37 37 37 37 37 37 37 37 36 36 35 35 35 35 35 34 34 35 35 33 33 33 32 31 31 30 29 29
37 37 37 37 37 37 37 37 38 38 39 38 38 38 37 37 37 37 38 38 38 39 39 39 39 39 39 39 39 38 37 37 37 36 37 37 37 37 37 37 36 35 34 34 33 32 32 31 31
37 38 38 37 37 38 38 38 38 39 39 40 39 39 39 39 38 38 39 39 39 40 40 40 40 41 41 41 41 41 40 40 39 38 38 38 39 39 39 38 38 37 36 35 35 35 34 34 33
38 38 38 38 38 38 39 38 39 40 40 41 41 40 40 40 40 40 40 40 41 41 41 41 41 42 42 43 43 43 42 41 42 41 41 40 40 41 40 40 40 40 39 38 37 37 37 36 36
38 38 38 39 39 39 40 39 40 41 41 41 42 42 41 41 42 42 42 41 41 42 43 43 42 43 44 45 45 45 44 43 44 43 43 43 43 42 42 41 41 42 42 40 40 39 39 39 38
36 37 38 39 39 40 40 40 40 41 42 42 42 43 42 42 42 42 42 43 42 42 43 43 43 44 45 46 47 47 46 46 46 45 46 46 45 45 45 44 43 43 43 43 42 41 41 40 40
36 36 37 38 39 40 41 41 41 42 42 43 43 43 43 42 42 42 42 42 42 42 42 43 43 44 45 46 47 48 48 48 48 47 47 47 47 47 46 45 45 45 45 44 43 43 42 42 42
35 36 37 38 39 40 41 41 41 41 42 42 42 42 42 42 42 41 42 42 42 42 42 42 43 44 45 46 47 48 48 49 49 49 48 48 48 48 48 48 46 46 45 45 45 44 43 43 44
34 35 36 37 38 40 41 42 41 41 41 41 41 41 41 41 41 41 41 41 42 42 42 43 43 44 45 46 47 48 49 49 49 49 49 50 50 50 50 49 49 47 46 46 46 45 44 44 45
34 34 35 36 37 39 40 42 40 40 40 40 40 41 41 41 41 41 41 41 42 42 43 43 44 45 45 46 47 48 49 49 49 50 50 51 51 52 52 51 50 50 49 49 48 47 46 46 45
33 33 34 35 37 38 39 41 40 39 39 38 39 40 40 41 41 40 41 41 42 42 43 44 44 45 46 47 48 48 49 49 50 50 51 51 52 52 53 54 53 52 51 50 50 49 48 47 47
32 33 35 35 36 37 36 38 39 37 37 37 38 38 39 40 41 41 41 41 42 43 43 44 45 46 47 47 48 49 50 50 51 52 52 53 53 54 54 54 55 54 53 52 51 50 49 48 47
31 31 33 34 35 36 35 37 36 34 35 36 37 38 39 39 40 41 41 41 41 42 43 43 44 46 47 48 48 49 50 51 52 52 53 53 54 55 54 54 54 54 55 54 52 51 50 49 48
29 29 31 33 34 35 35 35 34 34 34 34 36 37 38 39 39 40 41 41 42 42 43 43 44 45 46 47 49 50 51 51 52 53 54 54 54 54 54 54 54 54 54 53 53 53 51 50 50
29 29 29 31 32 33 34 33 32 32 33 34 35 36 38 39 40 40 41 41 42 43 43 44 45 46 47 48 49 50 51 52 52 53 54 53 54 55 55 54 53 52 53 54 54 53 54 53 51
27 27 28 29 31 32 32 31 30 29 30 31 33 35 36 38 39 40 41 41 42 43 44 45 46 47 47 48 49 50 51 52 52 53 53 53 53 54 54 54 53 53 53 54 55 54 54 54 53
26 27 28 29 30 30 31 30 28 28 30 31 31 33 34 36 37 38 40 41 42 43 44 44 46 47 48 49 50 51 51 51 51 52 53 53 53 53 53 53 53 53 54 54 55 55 55 53 53
26 27 27 28 29 29 30 29 28 29 29 30 31 32 33 34 35 37 38 40 40 42 42 44 45 46 47 49 49 50 50 50 50 51 52 52 52 53 52 52 52 52 53 53 54 55 55 54 53
Wind_Direction
237 238 239 239 239 240 242 241 241 240 241 242 241 242 243 244 245 245 245 244 244 244 243 241 240 237 235 234 233 231 231 232 232 229 230 231 231 231 229 226 228 228 232 235 235 234 233 232 234
238 239 240 241 240 241 243 243 243 243 244 245 244 244 244 245 246 247 247 246 246 246 245 245 242 240 239 238 237 235 234 233 233 233 234 233 234 235 232 230 232 234 238 240 240 239 240 242 242
239 240 241 242 242 242 244 244 244 244 245 245 245 245 245 246 247 248 248 248 248 248 247 246 245 243 242 241 240 239 237 236 236 236 237 236 236 237 236 235 237 237 240 244 245 243 247 248 247
241 241 242 243 244 243 243 243 244 245 245 246 246 246 247 247 247 247 248 248 249 249 248 248 247 246 244 242 241 241 240 239 239 238 238 238 239 240 239 237 239 241 242 244 247 250 252 253 253
241 242 243 243 244 244 244 244 245 246 246 247 248 248 248 248 248 248 248 249 249 248 249 249 249 247 245 244 242 242 242 242 242 240 240 240 241 241 241 240 242 244 245 245 248 252 256 256 256
243 243 244 244 244 244 244 245 246 246 247 247 248 248 248 249 249 249 249 249 249 249 249 249 249 249 248 246 245 244 243 243 244 244 242 242 242 243 243 243 244 245 245 246 249 252 256 260 261
244 244 245 244 243 243 244 245 246 247 246 247 247 248 249 250 250 250 250 249 249 250 249 249 248 248 249 249 248 247 245 245 244 245 245 244 244 244 245 245 245 246 247 247 250 252 255 258 261
244 245 246 245 244 243 243 245 245 246 246 246 247 248 248 249 250 251 250 250 249 249 249 249 249 249 249 249 249 248 247 246 245 246 246 245 245 245 246 247 247 248 248 249 251 254 256 257 259
245 245 246 246 245 244 244 245 246 247 247 247 248 249 249 249 250 250 251 250 249 249 250 250 250 250 250 251 250 247 248 248 247 247 247 246 246 247 246 246 248 248 249 250 252 254 257 258 259
245 246 246 246 246 245 245 245 246 247 247 248 249 250 250 250 251 251 251 250 250 250 251 251 251 251 251 251 250 247 248 249 248 248 249 248 248 248 248 248 248 249 250 251 252 253 257 258 258
245 247 246 247 247 246 246 246 247 247 248 248 249 249 250 252 252 252 252 252 252 251 251 251 252 252 253 252 249 247 248 248 248 248 248 249 249 248 250 250 250 250 251 252 253 253 255 257 258
247 248 248 249 248 247 247 247 247 248 248 249 250 250 250 251 252 252 252 253 253 254 254 253 253 253 252 250 248 247 248 248 249 248 248 248 249 249 250 251 250 251 252 253 254 254 255 257 258
248 248 249 249 249 249 248 248 248 249 249 250 251 251 251 251 251 252 253 254 254 254 254 254 253 253 252 250 247 247 247 247 248 248 249 249 250 251 251 251 251 251 252 252 254 255 256 257 258
250 249 249 248 249 249 249 248 249 250 251 251 251 252 252 252 252 254 254 254 254 254 254 254 253 253 252 249 247 247 247 247 248 249 249 248 249 251 252 252 251 252 253 253 253 255 256 257 258
250 249 249 249 249 250 250 249 250 251 251 252 252 253 253 254 254 254 255 255 255 255 254 253 253 252 251 249 247 248 248 249 248 249 250 250 250 251 252 252 252 252 252 253 253 254 256 257 258
251 250 250 250 251 251 251 251 252 251 252 253 254 254 255 255 255 255 256 256 256 255 254 254 252 251 249 248 248 248 249 249 249 250 251 250 251 252 253 253 253 253 254 253 254 255 255 257 258
252 252 252 252 252 253 252 252 252 253 252 253 254 255 256 256 256 256 256 257 256 255 254 254 252 251 249 249 249 249 249 249 250 250 251 251 251 252 253 254 255 255 254 254 254 254 256 257 258
254 254 254 254 254 254 253 253 253 254 254 254 254 255 256 256 256 256 256 256 256 255 254 253 252 251 250 250 250 250 249 250 250 251 251 252 252 253 253 254 254 255 255 255 255 254 256 257 258
255 255 255 255 255 255 255 255 255 255 255 255 255 255 255 256 256 256 256 256 256 255 254 252 252 252 251 250 249 249 250 250 252 252 252 252 252 253 253 254 254 256 256 256 256 256 256 257 257
257 256 256 257 256 256 256 256 256 256 256 256 256 256 256 256 256 257 257 256 255 255 254 253 252 251 251 250 250 250 250 251 252 253 253 253 252 252 253 254 254 255 256 256 256 257 257 258 258
259 258 259 259 258 258 258 256 256 256 256 256 255 256 255 256 256 256 257 256 255 255 255 254 253 252 252 251 251 251 251 252 252 253 253 253 253 253 253 254 253 253 255 256 257 257 256 258 258
259 259 260 261 260 259 259 259 257 257 257 256 256 255 255 255 256 256 256 255 255 255 255 255 253 253 254 253 253 252 252 252 253 253 254 254 254 254 254 253 253 254 255 255 256 257 257 257 258
260 260 261 262 262 261 260 260 258 257 257 257 256 255 255 255 255 256 256 256 256 256 256 256 255 255 254 254 254 253 253 253 253 254 254 254 254 254 254 253 253 253 254 255 255 256 256 256 258
261 260 261 261 261 261 261 262 261 259 258 257 256 256 256 256 256 256 256 257 257 257 257 258 257 256 255 255 254 254 253 254 254 254 255 255 254 254 254 254 253 254 254 254 255 256 256 257 257
262 262 263 261 260 261 261 262 263 261 260 259 258 257 257 258 258 258 257 257 257 257 258 258 258 257 256 255 254 253 254 255 255 255 255 255 255 254 254 255 254 253 254 255 255 256 256 256 257
262 263 264 264 264 263 263 263 264 263 261 261 260 260 260 259 259 259 259 258 258 258 258 259 259 259 257 256 255 255 254 255 256 256 256 255 255 255 255 255 254 253 253 254 254 255 255 257 257
262 261 262 264 264 265 265 265 264 263 263 263 262 262 261 261 260 260 260 259 259 259 259 260 260 259 258 257 257 257 257 257 257 257 257 256 256 256 256 255 255 254 254 254 255 255 256 256 257
261 261 261 263 266 267 267 266 266 265 266 267 265 263 262 262 262 261 261 260 260 260 260 261 261 260 259 258 258 258 258 259 258 258 257 257 256 256 255 255 255 255 255 255 255 255 256 257 257
259 259 260 262 264 268 270 270 269 269 269 270 268 267 266 265 264 263 262 262 262 262 261 261 261 260 259 259 259 259 259 260 260 259 257 256 256 256 255 255 255 255 255 255 256 255 256 257 257
258 258 258 262 265 267 271 272 272 272 272 272 270 269 269 268 266 265 263 263 263 263 262 261 261 260 259 259 259 260 260 260 260 259 257 256 255 255 255 255 255 255 256 256 256 256 256 257 257
Height
5824 5826 5828 5829 5831 5833 5834 5836 5837 5838 5840 5841 5842 5844 5845 5847 5848 5851 5849 5849 5849 5850 5851 5851 5852 5853 5853 5854 5854 5855 5856 5856 5857 5857 5858 5858 5859 5859 5860 5860 5861 5861 5861 5861 5862 5862 5862 5862 5863
5819 5821 5824 5825 5826 5828 5831 5832 5833 5834 5836 5837 5838 5840 5841 5842 5843 5844 5845 5845 5846 5847 5848 5849 5849 5850 5851 5851 5852 5853 5853 5854 5854 5855 5856 5856 5857 5858 5858 5859 5859 5859 5860 5860 5860 5860 5861 5861 5861
5814 5816 5819 5820 5822 5825 5826 5827 5829 5830 5831 5832 5834 5835 5837 5838 5839 5840 5841 5842 5843 5844 5845 5845 5846 5847 5848 5848 5849 5850 5850 5851 5852 5853 5853 5854 5855 5855 5856 5856 5857 5857 5858 5858 5858 5859 5859 5859 5859
5809 5811 5813 5816 5818 5820 5821 5822 5824 5825 5827 5828 5829 5831 5832 5834 5835 5836 5837 5838 5839 5840 5841 5842 5843 5843 5844 5845 5846 5847 5847 5848 5849 5850 5851 5851 5852 5853 5853 5854 5855 5855 5855 5856 5856 5856 5856 5857 5857
5803 5805 5807 5809 5813 5815 5816 5817 5819 5820 5822 5823 5824 5826 5827 5829 5830 5831 5832 5833 5834 5835 5836 5838 5839 5840 5840 5841 5842 5843 5844 5845 5846 5846 5847 5848 5849 5850 5850 5851 5852 5852 5853 5853 5853 5854 5854 5854 5855
5797 5799 5801 5804 5807 5809 5810 5811 5813 5815 5817 5818 5819 5820 5822 5823 5825 5826 5827 5828 5830 5831 5832 5833 5834 5835 5836 5837 5838 5839 5840 5841 5842 5843 5844 5845 5845 5846 5847 5848 5848 5849 5850 5850 5851 5851 5851 5851 5852
5791 5793 5795 5798 5801 5803 5805 5805 5807 5809 5810 5812 5813 5815 5817 5817 5819 5820 5821 5823 5824 5825 5826 5828 5829 5830 5831 5832 5833 5835 5836 5836 5837 5838 5839 5840 5841 5842 5843 5844 5845 5845 5846 5847 5847 5847 5848 5848 5848
5784 5786 5788 5791 5794 5797 5798 5799 5800 5802 5804 5806 5807 5809 5811 5812 5812 5814 5815 5817 5818 5819 5821 5822 5823 5825 5826 5827 5828 5829 5831 5832 5833 5834 5835 5836 5837 5838 5839 5839 5840 5841 5842 5842 5843 5843 5844 5844 5845
5776 5780 5782 5785 5787 5789 5791 5792 5793 5795 5797 5799 5800 5802 5804 5805 5806 5807 5809 5810 5812 5813 5815 5816 5817 5819 5820 5821 5822 5824 5825 5826 5827 5828 5829 5830 5831 5832 5833 5834 5835 5836 5837 5838 5838 5839 5840 5840 5840
5769 5772 5776 5777 5779 5781 5783 5784 5786 5788 5790 5792 5793 5795 5796 5798 5799 5801 5802 5804 5805 5806 5808 5809 5811 5812 5813 5815 5816 5817 5819 5820 5821 5822 5824 5825 5826 5827 5828 5829 5830 5831 5832 5832 5833 5834 5834 5835 5836
5762 5765 5768 5769 5771 5773 5775 5776 5778 5780 5782 5784 5786 5787 5789 5790 5792 5794 5795 5797 5798 5799 5800 5802 5803 5804 5805 5807 5809 5810 5812 5813 5815 5816 5817 5819 5820 5821 5822 5823 5824 5825 5826 5827 5827 5828 5829 5830 5830
5755 5757 5759 5761 5763 5765 5767 5768 5770 5772 5774 5776 5777 5779 5780 5783 5784 5786 5787 5789 5790 5792 5793 5794 5795 5796 5797 5799 5801 5803 5805 5806 5808 5809 5811 5812 5813 5814 5815 5816 5817 5818 5819 5820 5821 5822 5823 5823 5824
5747 5749 5751 5753 5755 5757 5758 5760 5762 5764 5765 5767 5769 5770 5772 5774 5776 5777 5779 5780 5782 5783 5784 5785 5786 5787 5789 5790 5792 5795 5797 5799 5801 5802 5803 5805 5806 5807 5808 5809 5809 5811 5812 5813 5814 5815 5816 5817 5818
5739 5741 5742 5744 5746 5748 5750 5751 5753 5756 5757 5758 5760 5762 5764 5765 5767 5768 5770 5771 5773 5774 5775 5776 5778 5779 5780 5782 5784 5787 5789 5791 5793 5794 5796 5797 5798 5799 5800 5802 5802 5804 5805 5806 5807 5808 5809 5810 5811
5730 5732 5734 5736 5737 5739 5741 5743 5745 5746 5748 5749 5751 5753 5755 5756 5758 5759 5760 5762 5763 5764 5766 5767 5768 5769 5771 5773 5776 5778 5781 5783 5784 5786 5788 5789 5790 5791 5792 5794 5795 5796 5797 5798 5800 5800 5801 5803 5804
5721 5723 5725 5728 5729 5730 5733 5735 5735 5736 5738 5740 5742 5743 5745 5747 5748 5750 5751 5752 5753 5754 5756 5757 5759 5760 5762 5764 5767 5769 5772 5773 5775 5777 5779 5781 5782 5783 5784 5785 5786 5787 5789 5790 5791 5793 5794 5794 5795
5712 5714 5716 5719 5720 5720 5722 5725 5725 5726 5728 5730 5732 5733 5735 5737 5738 5739 5741 5742 5743 5744 5745 5747 5749 5751 5753 5755 5758 5760 5762 5764 5766 5768 5769 5771 5773 5774 5775 5776 5777 5778 5780 5781 5783 5784 5785 5786 5787
5704 5706 5707 5708 5710 5711 5712 5714 5715 5716 5718 5720 5721 5723 5725 5726 5728 5729 5730 5731 5732 5733 5735 5736 5738 5740 5742 5744 5747 5749 5751 5754 5756 5757 5759 5761 5763 5764 5766 5767 5768 5769 5770 5772 5773 5774 5776 5777 5778
5694 5695 5697 5698 5699 5700 5701 5703 5705 5705 5707 5709 5711 5712 5714 5715 5717 5718 5719 5720 5721 5723 5724 5725 5727 5729 5731 5733 5736 5738 5741 5743 5745 5747 5748 5751 5752 5754 5756 5757 5758 5759 5761 5762 5763 5765 5766 5767 5768
5685 5686 5687 5688 5689 5689 5690 5692 5694 5695 5697 5698 5700 5701 5703 5704 5706 5707 5708 5709 5710 5712 5713 5715 5716 5718 5720 5722 5724 5727 5729 5731 5733 5735 5737 5739 5741 5743 5745 5747 5748 5749 5751 5752 5754 5755 5756 5757 5758
5676 5677 5678 5678 5679 5679 5680 5682 5683 5685 5686 5687 5689 5690 5692 5694 5695 5696 5697 5698 5699 5700 5702 5703 5705 5707 5709 5711 5713 5715 5717 5719 5721 5724 5725 5727 5729 5731 5733 5736 5738 5739 5740 5742 5743 5744 5746 5747 5748
5667 5668 5668 5668 5668 5669 5670 5670 5674 5674 5675 5677 5678 5679 5681 5682 5684 5685 5685 5687 5688 5689 5691 5692 5694 5696 5697 5699 5701 5703 5705 5708 5710 5712 5713 5715 5717 5719 5721 5723 5725 5727 5729 5730 5732 5733 5735 5736 5737
5658 5658 5659 5659 5658 5659 5660 5660 5664 5664 5666 5667 5668 5668 5670 5671 5672 5673 5674 5675 5677 5678 5680 5681 5682 5684 5685 5687 5689 5691 5693 5695 5697 5699 5701 5703 5704 5706 5708 5710 5712 5715 5717 5718 5720 5722 5723 5724 5726
5648 5649 5649 5649 5649 5650 5651 5650 5653 5655 5656 5657 5658 5658 5659 5660 5661 5662 5663 5664 5665 5667 5668 5669 5670 5672 5673 5675 5676 5678 5680 5682 5684 5686 5688 5690 5691 5693 5694 5696 5699 5701 5703 5705 5707 5709 5711 5712 5714
5640 5641 5640 5639 5639 5640 5642 5641 5645 5646 5647 5647 5648 5648 5648 5649 5650 5651 5652 5653 5654 5655 5656 5657 5658 5659 5660 5662 5664 5665 5667 5669 5671 5673 5674 5676 5678 5679 5681 5683 5685 5687 5690 5692 5694 5697 5698 5700 5702
5632 5633 5633 5632 5631 5632 5632 5633 5637 5637 5637 5637 5637 5637 5637 5638 5639 5640 5641 5642 5643 5644 5645 5646 5646 5647 5648 5649 5651 5652 5654 5655 5657 5659 5660 5662 5664 5665 5667 5668 5671 5673 5676 5678 5681 5684 5686 5688 5690
5623 5624 5625 5624 5622 5623 5623 5625 5627 5627 5627 5627 5627 5627 5627 5628 5628 5629 5630 5631 5631 5632 5633 5634 5635 5635 5636 5637 5638 5639 5641 5642 5644 5645 5646 5648 5650 5651 5653 5654 5657 5659 5662 5665 5668 5671 5673 5675 5677
5616 5616 5616 5615 5614 5614 5615 5616 5619 5618 5618 5618 5617 5617 5617 5617 5617 5618 5618 5619 5619 5620 5621 5622 5622 5623 5624 5624 5625 5626 5628 5629 5630 5631 5633 5634 5635 5637 5639 5641 5643 5646 5649 5652 5654 5657 5659 5662 5664
5608 5609 5608 5607 5607 5607 5606 5611 5610 5610 5609 5608 5608 5607 5607 5606 5606 5606 5606 5607 5607 5608 5608 5609 5610 5610 5611 5612 5612 5613 5615 5615 5616 5617 5618 5620 5621 5623 5625 5627 5630 5632 5635 5638 5641 5644 5646 5649 5651
5600 5600 5600 5600 5600 5599 5599 5604 5601 5601 5600 5599 5598 5597 5596 5596 5595 5595 5595 5595 5595 5595 5596 5596 5596 5597 5598 5598 5599 5600 5601 5601 5602 5603 5604 5606 5607 5609 5611 5613 5616 5619 5622 5624 5627 5629 5632 5635 5638